owner,sensor,date,latitude,longitude,vertical_datum,wind_speed,wind_to_direction,wind_speed_of_gust,qcFlag 
TABS,ioos:station:wmo:42047:1,2009-07-15T15:25:00Z,27.8966,-93.5973,4.0,0.0,0.0,0.0,'11111222,11111222,11111222' 
TABS,ioos:station:wmo:42047:1,2009-07-15T16:00:00Z,27.8966,-93.5973,4.0,0.0,0.0,0.0,'11111222,11111222,11111222' 
TABS,ioos:station:wmo:42047:1,2009-07-15T16:10:00Z,27.8966,-93.5973,4.0,0.0,0.0,0.0,'11111222,11111222,11111222' 
TABS,ioos:station:wmo:42047:1,2009-07-15T17:00:00Z,27.8966,-93.5973,4.0,0.0,0.0,0.0,'11111222,11111222,11111222' 
TABS,ioos:station:wmo:42047:1,2009-07-15T17:30:00Z,27.8966,-93.5973,4.0,0.0,0.0,0.0,'11111222,11111222,11111222' 
TABS,ioos:station:wmo:42047:1,2009-07-15T17:45:00Z,27.8966,-93.5973,4.0,0.0,0.0,0.0,'11111222,11111222,11111222' 
TABS,ioos:station:wmo:42047:1,2009-07-15T18:00:00Z,27.8966,-93.5973,4.0,0.0,0.0,0.0,'11111222,11111222,11111222' 
TABS,ioos:station:wmo:42047:1,2009-07-15T18:30:00Z,27.8966,-93.5973,4.0,0.0,0.0,0.0,'11111222,11111222,11111222' 
TABS,ioos:station:wmo:42047:1,2009-07-15T19:00:00Z,27.8966,-93.5973,4.0,0.0,0.0,0.0,'11111222,11111222,11111222' 
TABS,ioos:station:wmo:42047:1,2009-07-15T19:30:00Z,27.8966,-93.5973,4.0,0.0,0.0,0.0,'11111222,11111222,11111222' 
TABS,ioos:station:wmo:42047:1,2009-07-15T20:00:00Z,27.8966,-93.5973,4.0,1.534046935,307.3180081,3.81,'11111222,11111222,11111222' 
TABS,ioos:station:wmo:42047:1,2009-07-15T20:30:00Z,27.8966,-93.5973,4.0,0.947945146,223.2902952,2.12,'11111222,11111222,11111222' 
TABS,ioos:station:wmo:42047:1,2009-07-15T21:00:00Z,27.8966,-93.5973,4.0,0.618142378,189.3101289,2.65,'11111222,11111222,11111222' 
TABS,ioos:station:wmo:42047:1,2009-07-15T21:30:00Z,27.8966,-93.5973,4.0,1.053090689,157.0874356,3.34,'11111222,11111222,11111222' 
TABS,ioos:station:wmo:42047:1,2009-07-15T22:00:00Z,27.8966,-93.5973,4.0,0.89693924,202.2760562,2.65,'11111222,11111222,11111222' 
TABS,ioos:station:wmo:42047:1,2009-07-15T22:30:00Z,27.8966,-93.5973,4.0,1.32018938,123.5700408,4.37,'11111222,11111222,11111222' 
TABS,ioos:station:wmo:42047:1,2009-07-15T23:00:00Z,27.8966,-93.5973,4.0,0.869252552,156.9747723,2.25,'11111222,11111222,11111222' 
TABS,ioos:station:wmo:42047:1,2009-07-15T23:30:00Z,27.8966,-93.5973,4.0,0.955196315,160.4271304,2.77,'11111222,11111222,11111222' 
TABS,ioos:station:wmo:42047:1,2009-07-16T00:00:00Z,27.8966,-93.5973,4.0,1.783619915,129.3123377,4.0,'11111222,11111222,11111222' 
TABS,ioos:station:wmo:42047:1,2009-07-16T00:30:00Z,27.8966,-93.5973,4.0,2.146741717,131.4122174,4.11,'11111222,11111222,11111222' 
TABS,ioos:station:wmo:42047:1,2009-07-16T01:00:00Z,27.8966,-93.5973,4.0,2.505294394,118.0997479,3.75,'11111222,11111222,11111222' 
TABS,ioos:station:wmo:42047:1,2009-07-16T01:30:00Z,27.8966,-93.5973,4.0,1.737613306,139.4347758,2.84,'11111222,11111222,11111222' 
TABS,ioos:station:wmo:42047:1,2009-07-16T02:00:00Z,27.8966,-93.5973,4.0,0.996393497,169.5925235,2.1,'11111222,11111222,11111222' 
TABS,ioos:station:wmo:42047:1,2009-07-16T02:30:00Z,27.8966,-93.5973,4.0,0.664830806,164.2916094,1.54,'11111222,11111222,11111222' 
TABS,ioos:station:wmo:42047:1,2009-07-16T03:00:00Z,27.8966,-93.5973,4.0,0.684251416,153.0607454,1.7,'11111222,11111222,11111222' 
TABS,ioos:station:wmo:42047:1,2009-07-16T03:30:00Z,27.8966,-93.5973,4.0,1.190504095,169.3510157,2.96,'11111222,11111222,11111222' 
TABS,ioos:station:wmo:42047:1,2009-07-16T04:00:00Z,27.8966,-93.5973,4.0,1.059481005,162.4204001,1.74,'11111222,11111222,11111222' 
TABS,ioos:station:wmo:42047:1,2009-07-16T04:30:00Z,27.8966,-93.5973,4.0,1.070046728,164.2755015,1.82,'11111222,11111222,11111222' 
TABS,ioos:station:wmo:42047:1,2009-07-16T05:00:00Z,27.8966,-93.5973,4.0,0.781088983,161.3333398,1.97,'11111222,11111222,11111222' 
TABS,ioos:station:wmo:42047:1,2009-07-16T05:30:00Z,27.8966,-93.5973,4.0,0.880908622,177.3976543,1.68,'11111222,11111222,11111222' 
TABS,ioos:station:wmo:42047:1,2009-07-16T06:00:00Z,27.8966,-93.5973,4.0,0.935360893,173.8629689,1.94,'11111222,11111222,11111222' 
TABS,ioos:station:wmo:42047:1,2009-07-16T06:30:00Z,27.8966,-93.5973,4.0,0.941912947,183.6524247,1.65,'11111222,11111222,11111222' 
TABS,ioos:station:wmo:42047:1,2009-07-16T07:00:00Z,27.8966,-93.5973,4.0,0.608358447,205.3015299,1.51,'11111222,11111222,11111222' 
TABS,ioos:station:wmo:42047:1,2009-07-16T07:30:00Z,27.8966,-93.5973,4.0,0.547083175,161.8964898,0.99,'11111222,11111222,11111222' 
TABS,ioos:station:wmo:42047:1,2009-07-16T08:00:00Z,27.8966,-93.5973,4.0,0.490407993,196.5875102,1.21,'11111222,11111222,11111222' 
TABS,ioos:station:wmo:42047:1,2009-07-16T08:30:00Z,27.8966,-93.5973,4.0,0.492544414,174.1738821,1.1,'11111222,11111222,11111222' 
TABS,ioos:station:wmo:42047:1,2009-07-16T09:00:00Z,27.8966,-93.5973,4.0,0.61,180.0002105,1.29,'11111222,11111222,11111222' 
TABS,ioos:station:wmo:42047:1,2009-07-16T09:30:00Z,27.8966,-93.5973,4.0,0.633245608,201.2975147,1.33,'11111222,11111222,11111222' 
TABS,ioos:station:wmo:42047:1,2009-07-16T10:00:00Z,27.8966,-93.5973,4.0,0.626498204,188.2596291,1.13,'11111222,11111222,11111222' 
TABS,ioos:station:wmo:42047:1,2009-07-16T10:30:00Z,27.8966,-93.5973,4.0,0.516623654,165.4260283,1.01,'11111222,11111222,11111222' 
TABS,ioos:station:wmo:42047:1,2009-07-16T11:00:00Z,27.8966,-93.5973,4.0,0.465295605,208.2175003,1.08,'11111222,11111222,11111222' 
TABS,ioos:station:wmo:42047:1,2009-07-16T11:30:00Z,27.8966,-93.5973,4.0,0.528015151,204.6237177,1.05,'11111222,11111222,11111222' 
TABS,ioos:station:wmo:42047:1,2009-07-16T12:00:00Z,27.8966,-93.5973,4.0,0.602162769,215.5378051,1.39,'11111222,11111222,11111222' 
TABS,ioos:station:wmo:42047:1,2009-07-16T12:30:00Z,27.8966,-93.5973,4.0,1.73,252.5077164,2.86,'11111222,11111222,11111222' 
TABS,ioos:station:wmo:42047:1,2009-07-16T13:00:00Z,27.8966,-93.5973,4.0,0.893756119,229.5378671,2.29,'11111222,11111222,11111222' 
TABS,ioos:station:wmo:42047:1,2009-07-16T13:30:00Z,27.8966,-93.5973,4.0,2.0885641,242.944268,4.68,'11111222,11111222,11111222' 
TABS,ioos:station:wmo:42047:1,2009-07-16T14:00:00Z,27.8966,-93.5973,4.0,3.360014881,254.6402265,5.45,'11111222,11111222,11111222' 
TABS,ioos:station:wmo:42047:1,2009-07-16T14:30:00Z,27.8966,-93.5973,4.0,2.529229132,245.9685639,5.82,'11111222,11111222,11111222' 
TABS,ioos:station:wmo:42047:1,2009-07-16T15:00:00Z,27.8966,-93.5973,4.0,2.71543735,247.0231092,6.03,'11111222,11111222,11111222' 
TABS,ioos:station:wmo:42047:1,2009-07-16T15:30:00Z,27.8966,-93.5973,4.0,2.366178353,247.1194163,5.25,'11111222,11111222,11111222' 
TABS,ioos:station:wmo:42047:1,2009-07-16T16:00:00Z,27.8966,-93.5973,4.0,2.497558808,261.4805978,5.68,'11111222,11111222,11111222' 
TABS,ioos:station:wmo:42047:1,2009-07-16T16:30:00Z,27.8966,-93.5973,4.0,2.842885858,277.2749879,5.18,'11111222,11111222,11111222' 
TABS,ioos:station:wmo:42047:1,2009-07-16T17:00:00Z,27.8966,-93.5973,4.0,1.360036764,238.5305667,3.48,'11111222,11111222,11111222' 
TABS,ioos:station:wmo:42047:1,2009-07-16T17:30:00Z,27.8966,-93.5973,4.0,0.816149496,187.0381348,2.48,'11111222,11111222,11111222' 
TABS,ioos:station:wmo:42047:1,2009-07-16T18:00:00Z,27.8966,-93.5973,4.0,2.414228655,259.0158984,4.87,'11111222,11111222,11111222' 
TABS,ioos:station:wmo:42047:1,2009-07-16T18:30:00Z,27.8966,-93.5973,4.0,1.451206395,262.8750003,4.25,'11111222,11111222,11111222' 
TABS,ioos:station:wmo:42047:1,2009-07-16T19:00:00Z,27.8966,-93.5973,4.0,1.029417311,230.1232588,3.19,'11111222,11111222,11111222' 
TABS,ioos:station:wmo:42047:1,2009-07-16T19:30:00Z,27.8966,-93.5973,4.0,0.072111026,213.6901992,2.39,'11111222,11111222,11111222' 
TABS,ioos:station:wmo:42047:1,2009-07-16T20:00:00Z,27.8966,-93.5973,4.0,1.436802004,253.8355386,3.49,'11111222,11111222,11111222' 
TABS,ioos:station:wmo:42047:1,2009-07-16T20:30:00Z,27.8966,-93.5973,4.0,0.46141088,150.1013785,1.44,'11111222,11111222,11111222' 
TABS,ioos:station:wmo:42047:1,2009-07-16T21:00:00Z,27.8966,-93.5973,4.0,0.838629835,149.1536952,2.77,'11111222,11111222,11111222' 
TABS,ioos:station:wmo:42047:1,2009-07-16T21:30:00Z,27.8966,-93.5973,4.0,0.698140387,141.9813568,1.87,'11111222,11111222,11111222' 
TABS,ioos:station:wmo:42047:1,2009-07-16T22:00:00Z,27.8966,-93.5973,4.0,1.108602724,158.2948245,2.24,'11111222,11111222,11111222' 
TABS,ioos:station:wmo:42047:1,2009-07-16T22:30:00Z,27.8966,-93.5973,4.0,0.496487663,161.2003693,1.81,'11111222,11111222,11111222' 
TABS,ioos:station:wmo:42047:1,2009-07-16T23:00:00Z,27.8966,-93.5973,4.0,0.681542368,165.5562085,1.61,'11111222,11111222,11111222' 
TABS,ioos:station:wmo:42047:1,2009-07-16T23:30:00Z,27.8966,-93.5973,4.0,0.81215762,170.0739882,2.04,'11111222,11111222,11111222' 
TABS,ioos:station:wmo:42047:1,2009-07-17T00:00:00Z,27.8966,-93.5973,4.0,0.914439719,166.7238445,1.9,'11111222,11111222,11111222' 
TABS,ioos:station:wmo:42047:1,2009-07-17T00:30:00Z,27.8966,-93.5973,4.0,0.63387696,173.6600335,1.63,'11111222,11111222,11111222' 
TABS,ioos:station:wmo:42047:1,2009-07-17T01:00:00Z,27.8966,-93.5973,4.0,0.653911309,156.5715724,1.57,'11111222,11111222,11111222' 
TABS,ioos:station:wmo:42047:1,2009-07-17T01:30:00Z,27.8966,-93.5973,4.0,0.609261848,156.8016742,1.59,'11111222,11111222,11111222' 
TABS,ioos:station:wmo:42047:1,2009-07-17T02:00:00Z,27.8966,-93.5973,4.0,0.935200513,155.3534972,1.86,'11111222,11111222,11111222' 
TABS,ioos:station:wmo:42047:1,2009-07-17T02:30:00Z,27.8966,-93.5973,4.0,1.041201229,163.8280893,1.76,'11111222,11111222,11111222' 
TABS,ioos:station:wmo:42047:1,2009-07-17T03:00:00Z,27.8966,-93.5973,4.0,0.795550124,165.4399689,1.6,'11111222,11111222,11111222' 
TABS,ioos:station:wmo:42047:1,2009-07-17T03:30:00Z,27.8966,-93.5973,4.0,1.092245394,176.3257195,2.55,'11111222,11111222,11111222' 
TABS,ioos:station:wmo:42047:1,2009-07-17T04:00:00Z,27.8966,-93.5973,4.0,1.151564154,182.9868405,2.65,'11111222,11111222,11111222' 
TABS,ioos:station:wmo:42047:1,2009-07-17T04:30:00Z,27.8966,-93.5973,4.0,0.900222195,178.7271834,1.78,'11111222,11111222,11111222' 
TABS,ioos:station:wmo:42047:1,2009-07-17T05:00:00Z,27.8966,-93.5973,4.0,1.114495402,185.1480832,2.31,'11111222,11111222,11111222' 
TABS,ioos:station:wmo:42047:1,2009-07-17T05:30:00Z,27.8966,-93.5973,4.0,0.782304289,175.6015154,1.99,'11111222,11111222,11111222' 
TABS,ioos:station:wmo:42047:1,2009-07-17T06:00:00Z,27.8966,-93.5973,4.0,0.559016994,190.3050328,1.5,'11111222,11111222,11111222' 
TABS,ioos:station:wmo:42047:1,2009-07-17T06:30:00Z,27.8966,-93.5973,4.0,0.565685425,188.1302938,1.2,'11111222,11111222,11111222' 
TABS,ioos:station:wmo:42047:1,2009-07-17T07:00:00Z,27.8966,-93.5973,4.0,0.710070419,179.1932829,1.35,'11111222,11111222,11111222' 
TABS,ioos:station:wmo:42047:1,2009-07-17T07:30:00Z,27.8966,-93.5973,4.0,0.580775344,177.0392812,1.28,'11111222,11111222,11111222' 
TABS,ioos:station:wmo:42047:1,2009-07-17T08:00:00Z,27.8966,-93.5973,4.0,0.502493781,174.2896307,1.48,'11111222,11111222,11111222' 
TABS,ioos:station:wmo:42047:1,2009-07-17T08:30:00Z,27.8966,-93.5973,4.0,0.545893763,188.4271598,1.3,'11111222,11111222,11111222' 
TABS,ioos:station:wmo:42047:1,2009-07-17T09:00:00Z,27.8966,-93.5973,4.0,0.451884941,155.136572,1.12,'11111222,11111222,11111222' 
TABS,ioos:station:wmo:42047:1,2009-07-17T09:30:00Z,27.8966,-93.5973,4.0,0.45310043,157.964035,1.13,'11111222,11111222,11111222' 
TABS,ioos:station:wmo:42047:1,2009-07-17T10:00:00Z,27.8966,-93.5973,4.0,0.879204186,123.8711524,1.29,'11111222,11111222,11111222' 
TABS,ioos:station:wmo:42047:1,2009-07-17T10:30:00Z,27.8966,-93.5973,4.0,0.925904963,117.6724344,1.35,'11111222,11111222,11111222' 
TABS,ioos:station:wmo:42047:1,2009-07-17T11:00:00Z,27.8966,-93.5973,4.0,0.610982815,68.89478985,1.24,'11111222,11111222,11111222' 
TABS,ioos:station:wmo:42047:1,2009-07-17T11:30:00Z,27.8966,-93.5973,4.0,1.122719912,342.3718114,1.73,'11111222,11111222,11111222' 
TABS,ioos:station:wmo:42047:1,2009-07-17T12:00:00Z,27.8966,-93.5973,4.0,0.130384048,32.4709059,0.51,'11111222,11111222,11111222' 
TABS,ioos:station:wmo:42047:1,2009-07-17T12:30:00Z,27.8966,-93.5973,4.0,1.270039369,89.54844159,1.61,'11111222,11111222,11111222' 
TABS,ioos:station:wmo:42047:1,2009-07-17T12:50:00Z,27.8966,-93.5973,4.0,0.0,0.0,0.0,'11111222,11111222,11111222' 
TABS,ioos:station:wmo:42047:1,2009-07-17T13:00:00Z,27.8966,-93.5973,4.0,1.89,90.00042092,2.83,'11111222,11111222,11111222' 
TABS,ioos:station:wmo:42047:1,2009-07-17T13:30:00Z,27.8966,-93.5973,4.0,1.72626765,100.0083773,2.81,'11111222,11111222,11111222' 
TABS,ioos:station:wmo:42047:1,2009-07-17T14:00:00Z,27.8966,-93.5973,4.0,1.838477631,81.86949574,2.47,'11111222,11111222,11111222' 
TABS,ioos:station:wmo:42047:1,2009-07-17T14:30:00Z,27.8966,-93.5973,4.0,4.790375768,90.71807414,6.79,'11111222,11111222,11111222' 
TABS,ioos:station:wmo:42047:1,2009-07-17T15:00:00Z,27.8966,-93.5973,4.0,5.72171303,91.40248197,8.03,'11111222,11111222,11111222' 
TABS,ioos:station:wmo:42047:1,2009-07-17T15:30:00Z,27.8966,-93.5973,4.0,4.551263561,94.03221259,6.47,'11111222,11111222,11111222' 
TABS,ioos:station:wmo:42047:1,2009-07-17T16:00:00Z,27.8966,-93.5973,4.0,3.461170322,91.49043409,6.01,'11111222,11111222,11111222' 
TABS,ioos:station:wmo:42047:1,2009-07-17T16:30:00Z,27.8966,-93.5973,4.0,2.629543687,83.00971038,4.3,'11111222,11111222,11111222' 
TABS,ioos:station:wmo:42047:1,2009-07-17T17:00:00Z,27.8966,-93.5973,4.0,1.54870914,98.91532703,2.55,'11111222,11111222,11111222' 
TABS,ioos:station:wmo:42047:1,2009-07-17T17:30:00Z,27.8966,-93.5973,4.0,1.334053972,123.6904097,2.68,'11111222,11111222,11111222' 
TABS,ioos:station:wmo:42047:1,2009-07-17T18:00:00Z,27.8966,-93.5973,4.0,0.475394573,202.2491821,2.11,'11111222,11111222,11111222' 
TABS,ioos:station:wmo:42047:1,2009-07-17T18:30:00Z,27.8966,-93.5973,4.0,0.765375725,298.909116,2.63,'11111222,11111222,11111222' 
TABS,ioos:station:wmo:42047:1,2009-07-17T19:00:00Z,27.8966,-93.5973,4.0,1.67871975,278.5644986,4.97,'11111222,11111222,11111222' 
TABS,ioos:station:wmo:42047:1,2009-07-17T19:30:00Z,27.8966,-93.5973,4.0,1.738073646,233.6576365,4.17,'11111222,11111222,11111222' 
TABS,ioos:station:wmo:42047:1,2009-07-17T20:00:00Z,27.8966,-93.5973,4.0,2.696145397,279.3924274,6.13,'11111222,11111222,11111222' 
TABS,ioos:station:wmo:42047:1,2009-07-17T20:30:00Z,27.8966,-93.5973,4.0,2.123487697,299.9456134,4.14,'11111222,11111222,11111222' 
TABS,ioos:station:wmo:42047:1,2009-07-17T21:00:00Z,27.8966,-93.5973,4.0,2.036565737,321.7794469,4.19,'11111222,11111222,11111222' 
TABS,ioos:station:wmo:42047:1,2009-07-17T21:30:00Z,27.8966,-93.5973,4.0,1.851512895,333.0196219,3.26,'11111222,11111222,11111222' 
TABS,ioos:station:wmo:42047:1,2009-07-17T22:00:00Z,27.8966,-93.5973,4.0,1.672991333,19.19281645,4.74,'11111222,11111222,11111222' 
TABS,ioos:station:wmo:42047:1,2009-07-17T22:30:00Z,27.8966,-93.5973,4.0,2.272003521,53.23064017,3.94,'11111222,11111222,11111222' 
TABS,ioos:station:wmo:42047:1,2009-07-17T23:00:00Z,27.8966,-93.5973,4.0,2.623604391,73.84423737,4.9,'11111222,11111222,11111222' 
TABS,ioos:station:wmo:42047:1,2009-07-17T23:30:00Z,27.8966,-93.5973,4.0,2.755666888,73.34020402,4.68,'11111222,11111222,11111222' 
TABS,ioos:station:wmo:42047:1,2009-07-18T00:00:00Z,27.8966,-93.5973,4.0,2.968400243,73.76257463,5.02,'11111222,11111222,11111222' 
TABS,ioos:station:wmo:42047:1,2009-07-18T00:30:00Z,27.8966,-93.5973,4.0,3.467059273,74.44012033,4.87,'11111222,11111222,11111222' 
TABS,ioos:station:wmo:42047:1,2009-07-18T01:00:00Z,27.8966,-93.5973,4.0,2.945929395,82.39210115,4.29,'11111222,11111222,11111222' 
TABS,ioos:station:wmo:42047:1,2009-07-18T01:30:00Z,27.8966,-93.5973,4.0,2.591138746,84.68504584,3.48,'11111222,11111222,11111222' 
TABS,ioos:station:wmo:42047:1,2009-07-18T02:00:00Z,27.8966,-93.5973,4.0,1.328533026,109.799251,2.5,'11111222,11111222,11111222' 
TABS,ioos:station:wmo:42047:1,2009-07-18T02:30:00Z,27.8966,-93.5973,4.0,1.428005602,127.0307239,2.46,'11111222,11111222,11111222' 
TABS,ioos:station:wmo:42047:1,2009-07-18T03:00:00Z,27.8966,-93.5973,4.0,0.784920378,134.4841527,1.34,'11111222,11111222,11111222' 
TABS,ioos:station:wmo:42047:1,2009-07-18T03:30:00Z,27.8966,-93.5973,4.0,0.304138127,152.5926991,0.73,'11111222,11111222,11111222' 
TABS,ioos:station:wmo:42047:1,2009-07-18T04:00:00Z,27.8966,-93.5973,4.0,0.288444102,146.3102217,0.9,'11111222,11111222,11111222' 
TABS,ioos:station:wmo:42047:1,2009-07-18T04:30:00Z,27.8966,-93.5973,4.0,0.300832179,158.5525243,0.73,'11111222,11111222,11111222' 
TABS,ioos:station:wmo:42047:1,2009-07-18T05:00:00Z,27.8966,-93.5973,4.0,0.420475921,205.3463271,0.99,'11111222,11111222,11111222' 
TABS,ioos:station:wmo:42047:1,2009-07-18T05:30:00Z,27.8966,-93.5973,4.0,0.442831797,186.483269,1.06,'11111222,11111222,11111222' 
TABS,ioos:station:wmo:42047:1,2009-07-18T06:00:00Z,27.8966,-93.5973,4.0,0.670074623,232.2750932,1.21,'11111222,11111222,11111222' 
TABS,ioos:station:wmo:42047:1,2009-07-18T06:30:00Z,27.8966,-93.5973,4.0,0.636317531,239.8084476,1.04,'11111222,11111222,11111222' 
TABS,ioos:station:wmo:42047:1,2009-07-18T07:00:00Z,27.8966,-93.5973,4.0,0.344383507,244.1790684,0.58,'11111222,11111222,11111222' 
TABS,ioos:station:wmo:42047:1,2009-07-18T07:30:00Z,27.8966,-93.5973,4.0,0.444072066,324.1622204,0.63,'11111222,11111222,11111222' 
TABS,ioos:station:wmo:42047:1,2009-07-18T08:00:00Z,27.8966,-93.5973,4.0,0.070710678,188.1302938,0.49,'11111222,11111222,11111222' 
TABS,ioos:station:wmo:42047:1,2009-07-18T08:30:00Z,27.8966,-93.5973,4.0,0.292745623,172.1469155,0.63,'11111222,11111222,11111222' 
TABS,ioos:station:wmo:42047:1,2009-07-18T09:00:00Z,27.8966,-93.5973,4.0,0.32984845,165.9639998,0.68,'11111222,11111222,11111222' 
TABS,ioos:station:wmo:42047:1,2009-07-18T09:30:00Z,27.8966,-93.5973,4.0,0.399624824,121.7017765,0.89,'11111222,11111222,11111222' 
TABS,ioos:station:wmo:42047:1,2009-07-18T10:00:00Z,27.8966,-93.5973,4.0,0.23,180.0002105,0.5,'11111222,11111222,11111222' 
TABS,ioos:station:wmo:42047:1,2009-07-18T10:30:00Z,27.8966,-93.5973,4.0,0.348855271,297.2995084,0.55,'11111222,11111222,11111222' 
TABS,ioos:station:wmo:42047:1,2009-07-18T11:00:00Z,27.8966,-93.5973,4.0,0.710211236,279.7275558,0.85,'11111222,11111222,11111222' 
TABS,ioos:station:wmo:42047:1,2009-07-18T11:30:00Z,27.8966,-93.5973,4.0,0.59076222,87.08874806,1.02,'11111222,11111222,11111222' 
TABS,ioos:station:wmo:42047:1,2009-07-18T12:00:00Z,27.8966,-93.5973,4.0,0.070710678,44.99968431,0.48,'11111222,11111222,11111222' 
TABS,ioos:station:wmo:42047:1,2009-07-18T12:30:00Z,27.8966,-93.5973,4.0,0.904267659,100.1918989,1.34,'11111222,11111222,11111222' 
TABS,ioos:station:wmo:42047:1,2009-07-18T13:00:00Z,27.8966,-93.5973,4.0,0.614003257,106.0739575,1.23,'11111222,11111222,11111222' 
TABS,ioos:station:wmo:42047:1,2009-07-18T13:30:00Z,27.8966,-93.5973,4.0,0.621691242,78.87041582,1.45,'11111222,11111222,11111222' 
TABS,ioos:station:wmo:42047:1,2009-07-18T14:00:00Z,27.8966,-93.5973,4.0,0.51,61.92715779,1.54,'11111222,11111222,11111222' 
TABS,ioos:station:wmo:42047:1,2009-07-18T14:30:00Z,27.8966,-93.5973,4.0,0.598080262,290.5559972,1.84,'11111222,11111222,11111222' 
TABS,ioos:station:wmo:42047:1,2009-07-18T15:00:00Z,27.8966,-93.5973,4.0,1.101135777,272.6025561,2.32,'11111222,11111222,11111222' 
TABS,ioos:station:wmo:42047:1,2009-07-18T15:30:00Z,27.8966,-93.5973,4.0,0.758023746,120.964105,1.96,'11111222,11111222,11111222' 
TABS,ioos:station:wmo:42047:1,2009-07-18T16:00:00Z,27.8966,-93.5973,4.0,0.430464865,177.3372159,1.55,'11111222,11111222,11111222' 
TABS,ioos:station:wmo:42047:1,2009-07-18T16:30:00Z,27.8966,-93.5973,4.0,1.167647207,303.8260827,3.16,'11111222,11111222,11111222' 
TABS,ioos:station:wmo:42047:1,2009-07-18T17:00:00Z,27.8966,-93.5973,4.0,0.335410197,169.6953881,1.57,'11111222,11111222,11111222' 
TABS,ioos:station:wmo:42047:1,2009-07-18T17:30:00Z,27.8966,-93.5973,4.0,1.082589488,295.1447268,2.67,'11111222,11111222,11111222' 
TABS,ioos:station:wmo:42047:1,2009-07-18T18:00:00Z,27.8966,-93.5973,4.0,1.320151506,269.1319506,3.0,'11111222,11111222,11111222' 
TABS,ioos:station:wmo:42047:1,2009-07-18T18:30:00Z,27.8966,-93.5973,4.0,1.395600229,286.2273231,3.18,'11111222,11111222,11111222' 
TABS,ioos:station:wmo:42047:1,2009-07-18T19:00:00Z,27.8966,-93.5973,4.0,1.521085139,313.1351139,3.34,'11111222,11111222,11111222' 
TABS,ioos:station:wmo:42047:1,2009-07-18T19:30:00Z,27.8966,-93.5973,4.0,0.558032257,126.2541739,1.88,'11111222,11111222,11111222' 
TABS,ioos:station:wmo:42047:1,2009-07-18T20:00:00Z,27.8966,-93.5973,4.0,1.542627628,266.6553575,3.88,'11111222,11111222,11111222' 
TABS,ioos:station:wmo:42047:1,2009-07-18T20:30:00Z,27.8966,-93.5973,4.0,0.73593478,47.20227732,1.65,'11111222,11111222,11111222' 
TABS,ioos:station:wmo:42047:1,2009-07-18T21:00:00Z,27.8966,-93.5973,4.0,1.77789201,55.77329731,3.13,'11111222,11111222,11111222' 
TABS,ioos:station:wmo:42047:1,2009-07-18T21:30:00Z,27.8966,-93.5973,4.0,2.705124766,54.78206847,5.22,'11111222,11111222,11111222' 
TABS,ioos:station:wmo:42047:1,2009-07-18T22:00:00Z,27.8966,-93.5973,4.0,2.282389099,68.94409409,4.11,'11111222,11111222,11111222' 
TABS,ioos:station:wmo:42047:1,2009-07-18T22:30:00Z,27.8966,-93.5973,4.0,1.983053202,33.68977829,3.26,'11111222,11111222,11111222' 
TABS,ioos:station:wmo:42047:1,2009-07-18T23:00:00Z,27.8966,-93.5973,4.0,3.261717339,80.82606509,5.05,'11111222,11111222,11111222' 
TABS,ioos:station:wmo:42047:1,2009-07-18T23:30:00Z,27.8966,-93.5973,4.0,4.70846047,80.21719493,6.03,'11111222,11111222,11111222' 
TABS,ioos:station:wmo:42047:1,2009-07-19T00:00:00Z,27.8966,-93.5973,4.0,4.174326293,87.39079044,6.3,'11111222,11111222,11111222' 
TABS,ioos:station:wmo:42047:1,2009-07-19T00:30:00Z,27.8966,-93.5973,4.0,4.062523846,100.0655667,5.81,'11111222,11111222,11111222' 
TABS,ioos:station:wmo:42047:1,2009-07-19T01:00:00Z,27.8966,-93.5973,4.0,2.208393081,132.4310807,4.45,'11111222,11111222,11111222' 
TABS,ioos:station:wmo:42047:1,2009-07-19T01:30:00Z,27.8966,-93.5973,4.0,2.097450834,140.9991972,4.29,'11111222,11111222,11111222' 
TABS,ioos:station:wmo:42047:1,2009-07-19T02:00:00Z,27.8966,-93.5973,4.0,1.894887859,125.1162148,3.12,'11111222,11111222,11111222' 
TABS,ioos:station:wmo:42047:1,2009-07-19T02:30:00Z,27.8966,-93.5973,4.0,1.384521578,144.7031502,2.47,'11111222,11111222,11111222' 
TABS,ioos:station:wmo:42047:1,2009-07-19T03:00:00Z,27.8966,-93.5973,4.0,1.134416149,146.8705525,2.64,'11111222,11111222,11111222' 
TABS,ioos:station:wmo:42047:1,2009-07-19T03:30:00Z,27.8966,-93.5973,4.0,0.412310563,157.1666097,1.46,'11111222,11111222,11111222' 
TABS,ioos:station:wmo:42047:1,2009-07-19T04:00:00Z,27.8966,-93.5973,4.0,0.331058907,154.9833755,0.87,'11111222,11111222,11111222' 
TABS,ioos:station:wmo:42047:1,2009-07-19T04:30:00Z,27.8966,-93.5973,4.0,0.286530976,150.7514525,0.93,'11111222,11111222,11111222' 
TABS,ioos:station:wmo:42047:1,2009-07-19T05:00:00Z,27.8966,-93.5973,4.0,0.219544984,149.931698,0.77,'11111222,11111222,11111222' 
TABS,ioos:station:wmo:42047:1,2009-07-19T05:30:00Z,27.8966,-93.5973,4.0,0.393954312,156.0377775,0.93,'11111222,11111222,11111222' 
TABS,ioos:station:wmo:42047:1,2009-07-19T06:00:00Z,27.8966,-93.5973,4.0,0.22090722,174.8057937,0.65,'11111222,11111222,11111222' 
TABS,ioos:station:wmo:42047:1,2009-07-19T06:30:00Z,27.8966,-93.5973,4.0,0.46400431,127.1171948,0.74,'11111222,11111222,11111222' 
TABS,ioos:station:wmo:42047:1,2009-07-19T07:00:00Z,27.8966,-93.5973,4.0,0.246981781,148.2408046,0.72,'11111222,11111222,11111222' 
TABS,ioos:station:wmo:42047:1,2009-07-19T07:30:00Z,27.8966,-93.5973,4.0,0.399249296,157.9323625,0.9,'11111222,11111222,11111222' 
TABS,ioos:station:wmo:42047:1,2009-07-19T08:00:00Z,27.8966,-93.5973,4.0,0.355105618,189.7277663,0.83,'11111222,11111222,11111222' 
TABS,ioos:station:wmo:42047:1,2009-07-19T08:30:00Z,27.8966,-93.5973,4.0,0.144222051,146.3102217,0.5,'11111222,11111222,11111222' 
TABS,ioos:station:wmo:42047:1,2009-07-19T09:00:00Z,27.8966,-93.5973,4.0,0.27784888,149.743844,0.73,'11111222,11111222,11111222' 
TABS,ioos:station:wmo:42047:1,2009-07-19T09:30:00Z,27.8966,-93.5973,4.0,0.346554469,136.1694523,0.68,'11111222,11111222,11111222' 
TABS,ioos:station:wmo:42047:1,2009-07-19T10:00:00Z,27.8966,-93.5973,4.0,0.404969135,159.7753983,0.74,'11111222,11111222,11111222' 